Weather Roundup
Issued by NWS Corpus Christi, TX

Home | Current Version | Previous Version | Text Only | Print | Product List | Glossary On
Versions: 1 2 3 4 5 6 7 8 9 10 11 12 13 14 15 16 17 18 19 20 21 22 23 24 25 26 27 28 29 30 31 32 33 34 35 36 37 38 39 40 41 42 43 44 45 46 47 48 49 50
000
ASUS44 KCRP 050410
HRRCRP

SOUTH TEXAS REGIONAL WEATHER ROUNDUP
NATIONAL WEATHER SERVICE CORPUS CHRISTI TX
1100 PM CDT FRI SEP 04 2015


TXZ229>244-050500-
...CORPUS CHRISTI AREA OBSERVATIONS...

CITY           SKY/WX    TMP DP  RH WIND       PRES   REMARKS
CORPUS CHRISTI PTCLDY    83  77  82 SE12      29.92R HX  92
NAS CORPUS CHR PTCLDY    83  78  85 SE15      29.92R HX  93
ROCKPORT       PTCLDY    84  78  82 SE14      29.92R HX  95
KINGSVILLE NAS CLEAR     82  81  96 SE8       29.92R HX  95
ALICE          CLEAR     80  77  90 SE7       29.92R
FALFURRIAS     CLEAR     82  76  84 SE6       29.91R
$$

...VICTORIA AREA OBSERVATIONS...

CITY           SKY/WX    TMP DP  RH WIND       PRES   REMARKS
VICTORIA       CLEAR     79  78  97 SE8       29.94S
BEEVILLE       FAIR      79  78  97 E5        29.93S
PLEASANTON     CLEAR     81  73  76 SE9       29.93S
SAN ANTONIO    PTCLDY    82  72  71 SE14      29.95S
$$

...LAREDO AREA OBSERVATIONS...

CITY           SKY/WX    TMP DP  RH WIND       PRES   REMARKS
LAREDO         CLEAR     86  75  69 SE17      29.91R HX  95
COTULLA        CLEAR     85  74  69 SE17G24   29.91R HX  92
DEL RIO        CLEAR     88  66  48 E12G23    29.88R HX  90
MCALLEN        CLEAR     83  75  77 SE9       29.91R HX  90
HEBBRONVILLE   NOT AVBL
$$

...OTHER TEXAS OBSERVATIONS...

CITY           SKY/WX    TMP DP  RH WIND       PRES   REMARKS
BROWNSVILLE    CLEAR     82  79  90 SE6       29.92R HX  92
HOUSTON        PTCLDY    78  75  90 S5        29.95F
COL. STATION   CLEAR     80  73  79 SE9       29.95S
AUSTIN         PTCLDY    80  72  76 S7        29.95R
WACO           CLEAR     84  70  62 S13       29.94R
FORT WORTH     PTCLDY    87  69  54 SE12      29.93R HX  91
WICHITA FALLS  CLEAR     82  66  58 SE10      29.93R
LUBBOCK        MOCLDY    75  55  49 SE7       30.01R
EL PASO        CLOUDY    84  52  33 NW13      30.00R
$$

...MARINE OBSERVATIONS...

STATION/POSITION TIME  SKY/WX   TEMP    WIND        PRES    VSBY  WAVE   SWELL
                                AIR SEA DIR/SP/G                  HT/PER HT/PER
                 (UTC)          (F)     (DEG/KT/KT) (MB)    (MI)  (FT/S) (FT/S)
PORT ARANSAS     0400            85 86  140/ 18/ 20 1013.8R
BUOY 90 E PORT A 0350            85 85  160/ 12/ 14 1014.2R         3/ 6   2/ 6
BUOY 45 SE BAFFI 0350            85 85  140/ 14/ 16 1013.1R         3/ 6   2/ 9
BUOY 200 E PT IS 0350            86 85  140/ 12/ 14 1014.8R         2/ 6   2/ 6
BUOY 15 E GALVES 0350            85 86  170/ 10/ 10 1014.6S         2/ 4   2/ 5
$$



USA.gov is the U.S. government's official web portal to all federal, state and local government web resources and services.